Weather Roundup
Issued by NWS

Home | Current Version | Previous Version | Graphics & Text | Print | Product List | Glossary Off
Versions: 1 2 3 4 5 6 7 8 9 10 11 12 13 14 15 16 17 18 19 20 21 22 23 24 25 26 27 28 29 30 31 32 33 34 35 36 37 38 39 40 41 42 43 44 45 46 47 48 49 50

000
NZUS93 KARX 271659
HRRWXR

CURRENT HOURLY OBSERVATIONS ACROSS
MUCH OF THE UPPER MISSISSIPPI VALLEY
NATIONAL WEATHER SERVICE LA CROSSE WI
1200 PM CDT WED MAY 27 2015


...SOUTHEAST MINNESOTA...


CITY           SKY/WX    TMP DP  RH WIND       PRES   REMARKS
ROCHESTER      SUNNY     72  60  66 SW15      30.00R
ROCHESTER/MAYO FAIR      71  57  59 SW7       29.99R
WINONA         SUNNY     73  59  60 W7        29.97S
AUSTIN         SUNNY     72  61  68 SW10      30.00R
ALBERT LEA     SUNNY     73  57  56 SW7       29.99R
DODGE CENTER   SUNNY     73  59  60 SW14      29.99R
PRESTON        SUNNY     71  58  63 W10       30.01R
OWATONNA       SUNNY     73  59  60 SW9       29.98R
FARIBAULT      SUNNY     73  61  64 SW9       29.97R
$$

...ELSEWHERE IN MINNESOTA...


CITY           SKY/WX    TMP DP  RH WIND       PRES   REMARKS
MINNEAPOLIS    SUNNY     75  57  53 W9        29.94R
INTNL FALLS    SUNNY     74  51  44 N9        29.88R
DULUTH         SUNNY     77  54  44 W10       29.87R
RED WING       SUNNY     75  57  53 SW9       29.94R
REDWOOD FALLS  SUNNY     76  57  51 W12       29.97R
MANKATO        SUNNY     72  59  64 W6        29.98R
WORTHINGTON    SUNNY     75  54  46 W10       30.02R
FAIRMONT       SUNNY     75  54  46 W8        29.99S
$$

...SOUTHWEST WISCONSIN...


CITY           SKY/WX    TMP DP  RH WIND       PRES   REMARKS
LA CROSSE      SUNNY     72  59  63 S9        29.97R
PRAIRIE DU CHI SUNNY     70  55  59 CALM      29.99R
BOSCOBEL       MOSUNNY   73  58  59 N5        30.00R
LONE ROCK      PTSUNNY   69  57  65 W5        30.00R
PLATTEVILLE    MOSUNNY   68  59  73 W10       30.01R
FORT MC COY    SUNNY     70  54  56 SW3       29.98R
VIROQUA        FAIR      68  56  65 CALM      30.00R
WIS DELLS      MOSUNNY   68  54  61 NW9       29.98R
$$

...ELSEWHERE IN WISCONSIN...


CITY           SKY/WX    TMP DP  RH WIND       PRES   REMARKS
MILWAUKEE      LGT RAIN  64  57  78 NW15      29.95R
MADISON        PTSUNNY   66  56  70 VRB7      29.98R
GREEN BAY      LGT RAIN  63  58  83 W12       29.93R
EAU CLAIRE     SUNNY     71  57  61 SW10G20   29.94R
BLACK RVR FLS  PTSUNNY   70  55  58 SW8       29.96R
MEDFORD        MOSUNNY   64  58  81 SW10G17   29.94R
WAUSAU         CLOUDY    61  58  90 SW7       29.94R
WIS RAPIDS     PTSUNNY   66  57  72 W7        29.97R
MARSHFIELD     MOSUNNY   68  58  70 SW13      29.96R
RICE LAKE      MOSUNNY   71  55  56 SW7       29.94R
$$

...NORTHEAST IOWA...


CITY           SKY/WX    TMP DP  RH WIND       PRES   REMARKS
DECORAH        SUNNY     70  59  68 SW6G13    30.00R
MASON CITY     SUNNY     74  57  55 SW15      30.03R
CHARLES CITY   SUNNY     72  61  68 VRB6      30.02R
OELWEIN        SUNNY     70  59  68 NW7       30.04R
$$

...ELSEWHERE IN IOWA...


CITY           SKY/WX    TMP DP  RH WIND       PRES   REMARKS
DES MOINES     SUNNY     76  53  44 CALM      30.05R
IOWA CITY        N/A    N/A N/A N/A MISG      30.06
FORT DODGE     SUNNY     75  59  57 SW8       30.04R
$$

...NORTHERN ILLINOIS...


CITY           SKY/WX    TMP DP  RH WIND       PRES   REMARKS
CHICAGO-OHARE  PTSUNNY   71  59  65 W15G23    29.97R
CHICAGO-MIDWAY PTSUNNY   73  58  59 W16G23    29.98R
MOLINE         MOSUNNY   73  59  61 W14       30.02S
ROCKFORD       PTSUNNY   71  58  63 W17G26    30.01R
PEORIA         PTSUNNY   75  60  59 W10       30.03R
$$

NOTE: "FAIR" INDICATES FEW OR NO CLOUDS BELOW 12,000 FEET WITH NO
SIGNIFICANT WEATHER AND/OR OBSTRUCTIONS TO VISIBILITY. WIND
SPEEDS ARE IN MILES-PER-HOUR.



USA.gov is the U.S. government's official web portal to all federal, state and local government web resources and services.